This is the latest recevied weather packets stored in our database for station/object KD8NVS-13. If no packets are shown the sender has not sent any weather packets the latest 10 day(s).
| Time | Temp. | Humidity | Pressure | Rain* | Wind** | Luminosity | Snow |
|---|---|---|---|---|---|---|---|
| 1777145487 | 20° C | 70% | 1001.5 hPa | 0 mm | - | 258 W/m² | - |
| 1777145182 | 20° C | 69% | 1001.1 hPa | 0 mm | - | 248 W/m² | - |
| 1777144877 | 20° C | 70% | 1001.5 hPa | 0 mm | - | 311 W/m² | - |
| 1777144576 | 20° C | 70% | 1001.5 hPa | 0 mm | - | 301 W/m² | - |
| 1777144273 | 19.44° C | 72% | 1001.5 hPa | 0 mm | - | 217 W/m² | - |
| 1777143969 | 19.44° C | 72% | 1001.5 hPa | 0 mm | - | 217 W/m² | - |
| 1777143665 | 19.44° C | 71% | 1001.5 hPa | 0 mm | - | 178 W/m² | - |
| 1777143361 | 19.44° C | 71% | 1001.5 hPa | 0 mm | - | 194 W/m² | - |
| 1777143057 | 19.44° C | 71% | 1001.5 hPa | 0 mm | - | 180 W/m² | - |
| 1777142753 | 20° C | 70% | 1001.5 hPa | 0 mm | - | 152 W/m² | - |
| 1777142450 | 20° C | 70% | 1001.5 hPa | 0 mm | - | 117 W/m² | - |
| 1777142150 | 20° C | 66% | 1001.5 hPa | 0 mm | - | 216 W/m² | - |
| 1777141846 | 19.44° C | 70% | 1001.5 hPa | 0 mm | - | 288 W/m² | - |
| 1777141543 | 19.44° C | 71% | 1001.5 hPa | 0 mm | - | 296 W/m² | - |
| 1777141242 | 20° C | 70% | 1001.5 hPa | 0 mm | - | 227 W/m² | - |
| 1777140938 | 19.44° C | 70% | 1001.5 hPa | 0 mm | - | 189 W/m² | - |
| 1777140635 | 19.44° C | 70% | 1001.1 hPa | 0 mm | - | 277 W/m² | - |
| 1777140332 | 19.44° C | 70% | 1001.1 hPa | 0 mm | - | 254 W/m² | - |
| 1777140030 | 20° C | 70% | 1001.5 hPa | 0 mm | - | 292 W/m² | - |
| 1777139727 | 20° C | 69% | 1001.1 hPa | 0 mm | - | 328 W/m² | - |
| 1777139421 | 20° C | 68% | 1001.1 hPa | 0 mm | - | 278 W/m² | - |
| 1777139118 | 19.44° C | 74% | 1001.5 hPa | 0 mm | - | 247 W/m² | - |
| 1777138815 | 19.44° C | 74% | 1001.5 hPa | 0 mm | - | 233 W/m² | - |
| 1777138510 | 19.44° C | 76% | 1001.5 hPa | 0 mm | - | 232 W/m² | - |
| 1777138206 | 18.89° C | 77% | 1001.1 hPa | 0 mm | - | 257 W/m² | - |
* Rain latest hour (hover to see other rain measurements)
** Current wind speed in m/s (hover to see current wind gust speed)